De Queen, AR

2:27 PM CST on January 18, 2017 (GMT -0600)
Helms Sevier County

Weather History for KDEQ - May, 2014

Change the Weather History Date:

Sunday, May 25, 2014

  Actual Average Record
Temperature  
Mean Temperature 73 °F 72 °F  
Max Temperature 86 °F 83 °F 93 °F (1964)
Min Temperature 60 °F 61 °F 47 °F (1979)
Degree Days  
Heating Degree Days 0 0  
Month to date heating degree days 51 21  
Since 1 July heating degree days 3464 3042  
Cooling Degree Days 8 7  
Month to date cooling degree days 117 121  
Year to date cooling degree days 155 168  
Growing Degree Days 22 (Base 50)    
Moisture  
Dew Point 64 °F    
Average Humidity 78    
Maximum Humidity 100    
Minimum Humidity 55    
Precipitation  
Precipitation 0.00 in 0.11 in 2.96 in (1969)
Month to date precipitation 5.04 4.76  
Year to date precipitation 13.44 20.33  
Snow  
Snow 0.00 in - - ()
Month to date snowfall 0.0  
Since 1 July snowfall 1.2  
Snow Depth 0.00 in    
Sea Level Pressure  
Sea Level Pressure 30.00 in    
Wind  
Wind Speed 4 mph (SSE)    
Max Wind Speed 12 mph    
Max Gust Speed 17 mph    
Visibility 4 miles    
Events Fog    
T = Trace of Precipitation, MM = Missing Value Source: NWS Daily Summary

Daily Weather History Graph

Daily Weather History Graph

Search for Another Location

Airport or City:

Trip Planner

Search our weather history database for the weather conditions in past years. The results will help you decide how hot, cold, wet, or windy it might be!

Date:

Astronomy

May. 25, 2014 Rise Set
Actual Time 6:09 AM CDT 8:19 PM CDT
Civil Twilight 5:41 AM CDT 8:47 PM CDT
Nautical Twilight 5:07 AM CDT 9:22 PM CDT
Astronomical Twilight 4:29 AM CDT 9:59 PM CDT
Moon 4:05 AM CDT (5/25) 5:28 PM CDT (5/25)
Length of Visible Light 15h 06m
Length of Day
14h 09m
Waning Crescent, 10% of the Moon is Illuminated
May 25
Waning Crescent
May 28
New
Jun 5
First Quarter
Jun 12
Full
Jun 19
Last Quarter

Hourly Weather History & Observations

Time (CDT) Temp. Heat Index Dew Point Humidity Pressure Visibility Wind Dir Wind Speed Gust Speed Precip Events Conditions
12:00 AM 64.9 °F - 64.0 °F 97% 30.00 in 2.5 mi ENE 4.6 mph - N/A   Clear
12:07 AM 64.9 °F - 64.0 °F 97% 30.00 in 3.0 mi ENE 3.5 mph - N/A   Clear
12:42 AM 64.0 °F - 63.0 °F 96% 30.00 in 2.0 mi Calm Calm - N/A   Clear
1:22 AM 64.0 °F - 63.0 °F 96% 30.00 in 2.5 mi Calm Calm - N/A   Clear
1:29 AM 64.9 °F - 64.0 °F 97% 30.00 in 4.0 mi Calm Calm - N/A   Clear
1:37 AM 63.0 °F - 63.0 °F 100% 30.00 in 1.5 mi Calm Calm - N/A   Clear
1:53 AM 63.0 °F - 63.0 °F 100% 29.99 in 1.8 mi Calm Calm - N/A   Clear
2:06 AM 63.0 °F - 63.0 °F 100% 30.00 in 3.0 mi Calm Calm - N/A   Clear
2:11 AM 63.0 °F - 63.0 °F 100% 30.00 in 1.2 mi Calm Calm - N/A   Clear
2:19 AM 63.0 °F - 63.0 °F 100% 30.00 in 0.5 mi Calm Calm - N/A Fog Fog
2:30 AM 62.1 °F - 62.1 °F 100% 29.99 in 0.2 mi Calm Calm - N/A Fog Fog
2:53 AM 62.1 °F - 61.0 °F 96% 29.97 in 0.2 mi East 3.5 mph - N/A Fog Fog
3:08 AM 62.1 °F - 62.1 °F 100% 29.98 in 1.0 mi Calm Calm - N/A   Mist
3:15 AM 62.1 °F - 61.0 °F 96% 29.99 in 3.0 mi Calm Calm - N/A   Scattered Clouds
3:17 AM 62.1 °F - 61.0 °F 96% 29.99 in 1.8 mi Calm Calm - N/A   Scattered Clouds
3:20 AM 62.1 °F - 61.0 °F 96% 29.99 in 0.8 mi Calm Calm - N/A   Mist
3:34 AM 61.0 °F - 60.1 °F 97% 29.98 in 0.2 mi Calm Calm - N/A Fog Fog
3:38 AM 61.0 °F - 60.1 °F 97% 29.98 in 0.5 mi Calm Calm - N/A Fog Fog
3:45 AM 61.0 °F - 61.0 °F 100% 29.98 in 1.8 mi Calm Calm - N/A   Partly Cloudy
4:16 AM 61.0 °F - 61.0 °F 100% 29.99 in 1.0 mi Calm Calm - N/A   Clear
4:24 AM 61.0 °F - 61.0 °F 100% 30.00 in 0.8 mi Calm Calm - N/A   Clear
4:31 AM 61.0 °F - 61.0 °F 100% 30.00 in 2.0 mi Calm Calm - N/A   Clear
4:53 AM 61.0 °F - 60.1 °F 97% 29.99 in 1.8 mi Calm Calm - N/A   Clear
5:22 AM 61.0 °F - 60.1 °F 97% 30.00 in 0.8 mi Calm Calm - N/A   Clear
5:32 AM 61.0 °F - 61.0 °F 100% 30.01 in 1.2 mi Calm Calm - N/A   Clear
5:50 AM 60.8 °F - 60.8 °F 100% 30.02 in 2.5 mi Calm Calm - N/A   Mostly Cloudy
5:53 AM 61.0 °F - 61.0 °F 100% 30.01 in 3.0 mi Calm Calm - N/A   Mostly Cloudy
6:29 AM 63.0 °F - 62.1 °F 97% 30.04 in 2.5 mi Calm Calm - N/A   Overcast
6:53 AM 64.0 °F - 63.0 °F 96% 30.03 in 2.5 mi Calm Calm - N/A   Overcast
7:19 AM 66.0 °F - 64.0 °F 93% 30.05 in 3.0 mi Calm Calm - N/A   Overcast
7:32 AM 66.0 °F - 64.9 °F 96% 30.05 in 2.5 mi Calm Calm - N/A   Overcast
7:41 AM 66.9 °F - 64.9 °F 93% 30.06 in 3.0 mi Calm Calm - N/A   Overcast
7:53 AM 66.9 °F - 64.9 °F 93% 30.05 in 3.0 mi Calm Calm - N/A   Overcast
8:53 AM 71.1 °F - 68.0 °F 90% 30.05 in 5.0 mi East 5.8 mph - N/A   Mostly Cloudy
10:53 AM 78.1 °F - 69.1 °F 74% 30.03 in 7.0 mi Variable 4.6 mph - N/A   Partly Cloudy
11:53 AM 79.0 °F - 66.9 °F 66% 30.04 in 9.0 mi SW 6.9 mph - N/A   Mostly Cloudy
12:38 PM 81.0 °F 83.8 °F 68.0 °F 65% 30.05 in 9.0 mi SW 9.2 mph - N/A   Overcast
12:53 PM 80.1 °F 82.3 °F 66.9 °F 64% 30.04 in 8.0 mi SSW 9.2 mph - N/A   Overcast
1:53 PM 84.0 °F 86.5 °F 66.9 °F 56% 30.02 in 9.0 mi SSE 10.4 mph - N/A   Partly Cloudy
2:53 PM 82.9 °F 85.0 °F 66.0 °F 56% 30.00 in 8.0 mi South 6.9 mph - N/A   Scattered Clouds
3:53 PM 84.9 °F 87.6 °F 66.9 °F 55% 29.97 in 8.0 mi SE 10.4 mph - N/A   Mostly Cloudy
4:53 PM 84.9 °F 87.1 °F 66.0 °F 53% 29.96 in 10.0 mi South 10.4 mph 17.3 mph N/A   Scattered Clouds
5:53 PM 84.0 °F 86.3 °F 66.0 °F 55% 29.96 in 10.0 mi South 8.1 mph - N/A   Scattered Clouds
6:53 PM 82.9 °F 85.0 °F 66.0 °F 56% 29.96 in 10.0 mi South 5.8 mph - N/A   Clear
7:53 PM 81.0 °F 83.3 °F 66.9 °F 62% 29.97 in 9.0 mi Calm Calm - N/A   Clear
8:53 PM 75.0 °F - 68.0 °F 79% 29.98 in 9.0 mi Calm Calm - N/A   Clear
9:53 PM 71.1 °F - 69.1 °F 93% 29.99 in 6.0 mi Calm Calm - N/A   Clear
10:53 PM 69.1 °F - 66.9 °F 93% 30.00 in 3.0 mi Calm Calm - N/A   Clear
11:53 PM 66.9 °F - 66.0 °F 97% 30.00 in 4.0 mi East 3.5 mph - N/A   Clear